Home > Time Zones > World Clock > Weather > Mexico > Leon > Past weeks

Flag for Mexico Weather past 2 weeks in Leon, Guanajuato, Mexico

Now
59 °F

Mostly cloudy.


Feels Like: 57 °F
Forecast: 57 / 77 °F
Wind: 9 mph from Southeast

Location: San Luis Potosi - S. L. P.

Current Time: Sep 15, 2014 at 5:19:40 AM

Latest Report: Sep 15, 2014 at 3:56 AM


Visibility: 7 mi

Pressure: 29.92 "Hg

Humidity: 82%

Dew point: 54 °F

Location of LeonLocation

Historic Weather in Leon — Graph

°F

Leon temperature yesterday

Maximum temperature yesterday: 64 °F (at 1:48 AM)
Minimum temperature yesterday: 61 °F (at 7:47 AM)
Average temperature yesterday: 62 °F

Past Weeks' High & Low Weather Summary

 TemperatureHumidityPressure
High84 °F (Sep 2, 5:51 PM)100% (Sep 3, 2:16 PM)30.32 "Hg (Sep 3, 2:16 PM)
Low54 °F (Sep 1, 7:42 AM)22% (Sep 2, 5:51 PM)29.59 "Hg (Sep 3, 3:41 AM)
Average65 °F72%30.06 "Hg
* Reported Aug 31 8:48 AM — Sep 15 3:56 AM, Leon, Weather by CustomWeather, © 2014

Note: Actual official high and low records may vary slightly from our data, if they occured in-between our weather recording intervals... More about our weather records

Advertising

Leon weather history for previous 24 hours

 ConditionsComfort  
Time TempWeatherWind HumidityBarometerVisibility
3:56 AM
Sep 15
59 °FMostly cloudy.9 mph82%29.92 "Hg7 mi
2:48 AM61 °FMostly cloudy.9 mph83%30.32 "Hg7 mi
1:45 AM61 °FMostly cloudy.6 mph83%30.31 "Hg7 mi
10:50 PM
Sep 14
61 °FPassing clouds.9 mph83%30.31 "Hg7 mi
9:51 PM61 °FPassing clouds.14 mph83%29.96 "Hg8 mi
8:45 PM61 °FPartly sunny.9 mph94%30.30 "Hg8 mi
4:49 PM63 °FLight rain. Mostly cloudy.14 mph100%30.25 "Hg3 mi
3:50 PM64 °FLight rain. Mostly cloudy.14 mph94%29.87 "Hg3 mi
2:50 PM64 °FLight rain. Mostly cloudy.16 mph83%30.27 "Hg5 mi
12:45 PM64 °FFog.21 mph73%29.88 "Hg2 mi
11:48 AM64 °FFog.8 mph73%30.30 "Hg2 mi
10:46 AM63 °FMostly cloudy.6 mph77%30.30 "Hg4 mi
10:11 AM61 °FLight rain. Mostly cloudy.13 mph83%30.29 "Hg3 mi
9:45 AM63 °FMostly cloudy.18 mph77%29.87 "Hg4 mi
8:48 AM61 °FCloudy.5 mph83%30.26 "Hg6 mi
7:47 AM61 °FMostly cloudy.8 mph83%30.24 "Hg6 mi
6:48 AM63 °FPassing clouds.9 mph83%29.80 "Hg8 mi
Weather by CustomWeather, © 2014

See weather overviewHow to use our weather pages